Needles Airport Needles US
ICAO: KEED
IATA: EED
Category: Medium
Scheduled Services: No

Elevation: 983 ft
TransAlt. 18000 ft.

Airport Communications:
LOS ANGELES CNTR:134.65
ASOS:128.325
PRESCOTT RDO:115.2
CTAF/UNICOM:123

KEED Zoom In..

If you have problems with the map follow the link
https://www.worldairports.se/pages/airport.php?
ICAO=KEED

Runways:

(A) RW 02 length 4235 ft width 100 ft
---- / hdg 16

(B) RW 11 length 5005 ft width 100 ft
---- / hdg 106

(C) RW 20 length 4235 ft width 100 ft
---- / hdg 196

(D) RW 29 length 5005 ft width 100 ft
---- / hdg 286

Location; KEED
Day. 19 / Time. 18.56 Zulu
* Altimeter: 30.09
* Temperature: 17° c. 62.6°f.
* Wind from: 290° Speed 03 kn.
Dewpoint: -06° c.
Visibility: 10 Statute Miles.
Clouds: Clear (automated report).

KEED 191856Z AUTO 29003KT 10SM CLR 17/M06 A3009 RMK AO2 SLP174 T01721061


Wind From 290°
Speed 03 kn.

 
 
jpsmedia worldairports.se 2020   terms of use